Location: Alma
(38.7220°N, 88.9090°W)
Time: 17:37:44
(UTC-06:00)

Courier 1B - All Passes

Search period start: 16 November 2019 00:00
Search period end: 26 November 2019 00:00
Orbit: 963 x 1209 km, 28.3° (Epoch: 16 November)

Date Brightness Start Highest point End Pass type
(mag) Time Alt. Az. Time Alt. Az. Time Alt. Az.
16 Nov - 06:17:51 10° SSW 06:22:44 21° SSE 06:27:29 10° ESE daylight
16 Nov - 08:10:15 10° WSW 08:15:59 32° S 08:21:37 10° ESE daylight
16 Nov - 10:03:49 10° WSW 10:09:17 29° S 10:14:47 10° SE daylight
16 Nov - 11:58:43 10° WSW 12:02:25 16° SSW 12:06:11 10° SSE daylight
17 Nov - 05:24:48 10° SSW 05:29:11 18° SSE 05:33:27 10° ESE visible
17 Nov - 07:16:43 10° SW 07:22:25 31° S 07:27:58 10° ESE daylight
17 Nov - 09:10:06 10° WSW 09:15:44 31° S 09:21:20 10° SE daylight
17 Nov - 11:04:30 10° WSW 11:08:55 19° SSW 11:13:24 10° SSE daylight
18 Nov - 04:32:04 10° S 04:35:38 15° SSE 04:39:07 10° SE visible
18 Nov - 06:23:13 10° SW 06:28:50 28° SSE 06:34:17 10° ESE daylight
18 Nov - 08:16:23 10° WSW 08:22:11 33° S 08:27:52 10° ESE daylight
18 Nov - 10:10:29 10° WSW 10:15:25 23° SSW 10:20:22 10° SSE daylight
19 Nov - 03:40:07 10° S 03:42:05 11° SSE 03:44:00 10° SE visible
19 Nov - 05:29:47 10° SW 05:35:16 25° SSE 05:40:33 10° ESE visible
19 Nov - 07:22:41 10° WSW 07:28:36 33° S 07:34:20 10° ESE daylight
19 Nov - 09:16:33 10° WSW 09:21:53 27° SSW 09:27:10 10° SE daylight
19 Nov - 11:12:24 10° SW 11:14:57 12° SSW 11:17:31 10° S daylight
20 Nov - 04:36:29 10° SSW 04:41:41 22° SSE 04:46:40 10° ESE visible
20 Nov - 06:29:00 10° WSW 06:35:00 33° S 06:40:47 10° ESE daylight
20 Nov - 08:22:42 10° WSW 08:28:21 30° S 08:33:53 10° SE daylight
20 Nov - 10:17:39 10° WSW 10:21:28 16° SSW 10:25:16 10° SSE daylight
21 Nov - 03:43:21 10° SSW 03:48:05 19° SSE 03:52:37 10° ESE visible
21 Nov - 05:35:21 10° SW 05:41:24 31° S 05:47:10 10° ESE visible
21 Nov - 07:28:51 10° WSW 07:34:47 33° S 07:40:30 10° SE daylight
21 Nov - 09:23:22 10° WSW 09:27:59 20° SSW 09:32:32 10° SSE daylight
22 Nov - 02:50:33 10° S 02:54:28 15° SSE 02:58:17 10° ESE visible
22 Nov - 04:41:46 10° SW 04:47:46 29° SSE 04:53:29 10° ESE visible
22 Nov - 06:35:03 10° WSW 06:41:11 34° S 06:47:04 10° ESE daylight
22 Nov - 08:29:15 10° WSW 08:34:28 24° SSW 08:39:33 10° SE daylight
23 Nov - 01:58:29 10° S 02:00:51 12° SSE 02:03:13 10° SE visible
23 Nov - 03:48:16 10° SW 03:54:08 26° SSE 03:59:44 10° ESE visible
23 Nov - 05:41:15 10° WSW 05:47:34 35° S 05:53:33 10° ESE visible
23 Nov - 07:35:15 10° WSW 07:40:56 28° SSW 07:46:24 10° SE daylight
23 Nov - 09:31:00 10° SW 09:33:59 13° SSW 09:36:56 10° S daylight
24 Nov - 02:54:55 10° SSW 03:00:29 23° SSE 03:05:49 10° ESE visible
24 Nov - 04:47:30 10° WSW 04:53:54 34° S 04:59:59 10° ESE visible
24 Nov - 06:41:18 10° WSW 06:47:21 32° S 06:53:07 10° SE daylight
24 Nov - 08:36:16 10° WSW 08:40:30 18° SSW 08:44:38 10° SSE daylight
25 Nov - 02:01:47 10° SSW 02:06:50 19° SSE 02:11:42 10° ESE visible
25 Nov - 03:53:46 10° SW 04:00:14 32° S 04:06:21 10° ESE visible
25 Nov - 05:47:23 10° WSW 05:53:43 34° S 05:59:45 10° ESE visible
25 Nov - 07:41:56 10° WSW 07:47:00 22° SSW 07:51:53 10° SSE daylight
